CW8216 Weather Reports


Display with metric or nautical units.
time (UTC)temp
F
wind
direction
speed
MPH
gust
MPH
rain 1hr
in
rain 24hr
in
rain mn
in
humidity
%
barometer
mb
20260504234551 54 0 0.0 1.0 0.00 0.00 0.00 95 1024.2
20260504234039 55 68 0.0 1.0 0.00 0.00 0.00 95 1024.2
20260504233541 54 0 0.0 1.0 0.00 0.00 0.00 95 1024.2
20260504233107 54 0 0.0 1.0 0.00 0.00 0.00 95 1024.3
20260504232541 54 0 0.0 1.0 0.00 0.00 0.00 95 1024.2
20260504232040 54 0 0.0 1.0 0.00 0.00 0.00 95 1024.2
20260504231555 53 0 0.0 1.0 0.00 0.00 0.00 95 1024.1
20260504231041 53 0 0.0 1.0 0.00 0.00 0.00 95 1024.2
20260504230541 53 0 0.0 1.0 0.00 0.00 0.00 95 1024.1
20260504230052 53 0 0.0 1.0 0.00 0.00 0.00 95 1024.0
20260504225539 53 0 0.0 0.0 0.00 0.00 0.00 95 1024.1
20260504225136 53 0 0.0 1.0 0.00 0.00 0.00 95 1023.8
20260504224550 53 0 0.0 1.0 0.00 0.00 0.00 95 1023.8
20260504224041 53 0 0.0 1.0 0.00 0.00 0.00 95 1023.8
20260504223541 53 0 0.0 1.0 0.00 0.00 0.00 95 1023.8
20260504223100 52 62 0.0 0.0 0.00 0.00 0.00 95 1023.8
20260504222541 52 0 0.0 0.0 0.00 0.00 0.00 95 1023.9
20260504222042 52 0 0.0 0.0 0.00 0.00 0.00 95 1023.7
20260504221549 52 0 0.0 0.0 0.00 0.00 0.00 95 1023.7
20260504221044 51 0 0.0 0.0 0.00 0.00 0.00 95 1023.6
20260504220539 51 0 0.0 0.0 0.00 0.00 0.00 95 1023.7
20260504220054 51 0 0.0 0.0 0.00 0.00 0.00 95 1023.7
20260504215541 50 0 0.0 0.0 0.00 0.00 0.00 95 1023.5
20260504215040 50 0 0.0 0.0 0.00 0.00 0.00 95 1023.4
20260504214552 50 0 0.0 0.0 0.00 0.00 0.00 95 1023.4
20260504214043 50 0 0.0 0.0 0.00 0.00 0.00 95 1023.2
20260504213541 50 0 0.0 0.0 0.00 0.00 0.00 95 1023.2
20260504213056 50 0 0.0 0.0 0.00 0.00 0.00 95 1023.2
20260504212543 50 0 0.0 0.0 0.00 0.00 0.00 95 1023.3
20260504212041 50 0 0.0 0.0 0.00 0.00 0.00 95 1023.2
20260504211552 50 0 0.0 0.0 0.00 0.00 0.00 95 1023.3
20260504211041 50 0 0.0 0.0 0.00 0.00 0.00 95 1023.2
20260504210541 50 0 0.0 0.0 0.00 0.00 0.00 95 1023.2
20260504210051 50 0 0.0 0.0 0.00 0.00 0.00 95 1023.0
20260504205542 50 0 0.0 0.0 0.00 0.00 0.00 95 1023.0
20260504205042 49 0 0.0 0.0 0.00 0.00 0.00 95 1022.8
20260504204550 50 0 0.0 0.0 0.00 0.00 0.00 95 1022.9
20260504204038 50 0 0.0 0.0 0.00 0.00 0.00 95 1022.7
20260504203538 50 0 0.0 0.0 0.00 0.00 0.00 94 1022.9
20260504203108 49 0 0.0 0.0 0.00 0.00 0.00 94 1022.8
20260504202538 50 0 0.0 1.0 0.00 0.00 0.00 95 1022.9
20260504202046 50 0 0.0 1.0 0.00 0.00 0.00 95 1022.8
20260504201556 50 0 0.0 2.0 0.00 0.00 0.00 95 1022.7
20260504201042 50 0 0.0 2.0 0.00 0.00 0.00 95 1022.6
20260504200540 49 0 0.0 2.0 0.00 0.00 0.00 95 1022.5
20260504200049 49 0 0.0 1.0 0.00 0.00 0.00 95 1022.7
20260504195541 49 97 0.0 0.0 0.00 0.00 0.00 95 1022.5
20260504195041 49 98 0.0 0.0 0.00 0.00 0.00 95 1022.4
20260504194552 48 0 0.0 0.0 0.00 0.00 0.00 94 1022.4
20260504194040 48 0 0.0 0.0 0.00 0.00 0.00 94 1022.4
20260504193545 48 0 0.0 0.0 0.00 0.00 0.00 94 1022.3
20260504193048 48 0 0.0 0.0 0.00 0.00 0.00 94 1022.2
20260504192540 47 0 0.0 0.0 0.00 0.00 0.00 94 1022.2
20260504192044 47 0 0.0 1.0 0.00 0.00 0.00 93 1022.1
20260504191557 48 0 0.0 1.0 0.00 0.00 0.00 94 1022.1
20260504191041 48 0 0.0 1.0 0.00 0.00 0.00 94 1022.1
20260504190541 47 0 0.0 1.0 0.00 0.00 0.00 94 1021.9
20260504190048 47 0 0.0 1.0 0.00 0.00 0.00 94 1021.9
20260504185541 47 0 0.0 1.0 0.00 0.00 0.00 94 1022.0
20260504185040 47 0 0.0 0.0 0.00 0.00 0.00 93 1021.9
20260504184551 48 0 0.0 0.0 0.00 0.00 0.00 93 1021.9
20260504184041 48 0 0.0 0.0 0.00 0.00 0.00 93 1021.8
20260504183542 48 0 0.0 0.0 0.00 0.00 0.00 93 1021.8
20260504183053 48 0 0.0 1.0 0.00 0.00 0.00 93 1021.7
20260504182546 49 0 0.0 1.0 0.00 0.00 0.00 93 1021.7
20260504182041 49 0 0.0 2.0 0.00 0.00 0.00 93 1021.7
20260504181554 49 0 0.0 2.0 0.00 0.00 0.00 93 1021.7
20260504181041 49 0 0.0 1.0 0.00 0.00 0.00 92 1021.6
20260504180542 50 0 0.0 1.0 0.00 0.00 0.00 93 1021.6
20260504180051 50 0 0.0 0.0 0.00 0.00 0.00 93 1021.6
20260504175540 51 0 0.0 0.0 0.00 0.00 0.00 93 1021.6
20260504175042 51 0 0.0 1.0 0.00 0.00 0.00 93 1021.7
20260504174611 51 0 0.0 1.0 0.00 0.00 0.00 93 1021.7
20260504174041 51 0 0.0 1.0 0.00 0.00 0.00 93 1021.7
20260504173542 51 0 0.0 0.0 0.00 0.00 0.00 93 1021.7
20260504173052 51 0 0.0 0.0 0.00 0.00 0.00 93 1021.7
20260504172542 51 0 0.0 0.0 0.00 0.00 0.00 93 1021.9
20260504172038 50 0 0.0 0.0 0.00 0.00 0.00 93 1021.8
20260504171557 50 0 0.0 0.0 0.00 0.00 0.00 93 1021.7
20260504171042 50 0 0.0 0.0 0.00 0.00 0.00 93 1021.9
20260504170542 51 0 0.0 0.0 0.00 0.00 0.00 93 1022.0
20260504151038 52 0 0.0 0.0 0.00 0.00 0.00 90 1022.1
20260504150541 52 0 0.0 0.0 0.00 0.00 0.00 90 1022.1
20260504141041 49 0 0.0 1.0 0.00 0.00 0.00 89 1022.2
20260504140542 49 0 0.0 1.0 0.00 0.00 0.00 89 1022.2
20260504130540 49 0 0.0 0.0 0.00 0.00 0.00 85 1022.1
20260504110540 54 0 0.0 0.0 0.00 0.03 0.00 77 1021.2
20260504100540 53 0 0.0 0.0 0.00 0.03 0.00 76 1020.4
20260504081549 60 222 2.0 5.0 0.00 0.03 0.00 63 1018.9
20260504081037 60 221 3.0 6.0 0.00 0.03 0.00 63 1018.8
20260504080540 61 164 2.0 6.0 0.00 0.03 0.00 63 1018.8
20260504050540 64 259 6.0 12.0 0.00 0.03 0.00 59 1017.3
20260504045539 63 328 5.0 12.0 0.00 0.03 0.00 58 1017.4
20260504045039 64 291 6.0 12.0 0.00 0.03 0.00 58 1017.3
20260504044602 64 277 6.0 13.0 0.00 0.03 0.00 57 1017.3
20260504044040 64 349 6.0 14.0 0.00 0.03 0.00 56 1017.3
20260504043539 65 256 7.0 14.0 0.00 0.03 0.00 57 1017.4
20260504043056 64 236 5.0 12.0 0.00 0.03 0.00 58 1017.3
20260504042539 64 251 5.0 12.0 0.00 0.03 0.00 60 1017.5
20260504042041 62 244 6.0 11.0 0.00 0.03 0.00 61 1017.4
20260504041554 63 269 4.0 9.0 0.00 0.03 0.00 59 1017.5
20260504041041 63 229 4.0 10.0 0.00 0.03 0.00 60 1017.5
20260504040540 64 339 6.0 10.0 0.00 0.03 0.00 58 1017.5
20260504040106 64 333 5.0 10.0 0.00 0.03 0.00 58 1017.5
20260504035540 63 227 4.0 10.0 0.00 0.03 0.00 60 1017.6
20260504035039 64 240 3.0 11.0 0.00 0.03 0.00 58 1017.6
20260504034611 64 259 5.0 11.0 0.00 0.03 0.00 58 1017.6
20260504034040 64 279 4.0 9.0 0.00 0.03 0.00 58 1017.6
20260504033543 63 316 5.0 9.0 0.00 0.03 0.00 60 1017.6
20260504033047 63 348 4.0 11.0 0.00 0.03 0.00 60 1017.6
20260504032540 63 339 5.0 11.0 0.00 0.03 0.00 61 1017.6
20260504032044 62 217 6.0 11.0 0.00 0.03 0.00 63 1017.7
20260504031548 61 258 4.0 7.0 0.00 0.03 0.00 63 1017.8
20260504031036 62 241 4.0 8.0 0.00 0.03 0.00 61 1017.8
20260504030538 62 211 5.0 12.0 0.00 0.03 0.00 62 1017.9
20260504030118 62 233 5.0 12.0 0.00 0.03 0.00 59 1018.2
20260504025540 63 311 7.0 12.0 0.00 0.03 0.00 60 1018.2
20260504025038 63 283 5.0 11.0 0.00 0.03 0.00 61 1018.2
20260504024549 63 217 5.0 11.0 0.00 0.03 0.00 61 1018.2
20260504024040 63 233 6.0 11.0 0.00 0.03 0.00 61 1018.2
20260504023539 62 260 5.0 11.0 0.00 0.03 0.00 62 1018.4
20260504023050 62 248 5.0 11.0 0.00 0.03 0.00 63 1018.4
20260504022540 62 262 4.0 11.0 0.00 0.03 0.00 64 1018.4
20260504022039 61 333 6.0 11.0 0.00 0.03 0.00 64 1018.4
20260504021553 61 238 5.0 11.0 0.00 0.03 0.00 65 1018.5
20260504021039 61 271 6.0 9.0 0.00 0.03 0.00 65 1018.5
20260504020543 60 240 5.0 10.0 0.00 0.03 0.00 68 1018.5
20260504020052 59 253 5.0 12.0 0.00 0.03 0.00 69 1018.5
20260504015540 59 243 6.0 12.0 0.00 0.03 0.00 70 1018.5
20260504015037 59 227 4.0 10.0 0.00 0.03 0.00 70 1018.5
20260504014555 59 231 5.0 11.0 0.00 0.03 0.00 70 1018.5
20260504014036 59 246 5.0 11.0 0.00 0.03 0.00 71 1018.6
20260504013541 59 236 5.0 10.0 0.00 0.03 0.00 70 1018.7
20260504013052 59 236 4.0 9.0 0.00 0.03 0.00 70 1018.6
20260504012540 59 275 4.0 9.0 0.00 0.03 0.00 71 1018.6
20260504012040 59 283 4.0 8.0 0.00 0.03 0.00 71 1018.7
20260504011550 58 283 4.0 8.0 0.00 0.03 0.00 72 1018.7
20260504011039 58 223 5.0 8.0 0.00 0.03 0.00 72 1018.6
20260504010539 58 252 4.0 7.0 0.00 0.03 0.00 72 1018.7
20260504010051 57 260 3.0 7.0 0.00 0.03 0.00 74 1018.6
20260504005616 57 255 3.0 7.0 0.00 0.03 0.00 75 1018.6
20260504005043 57 314 3.0 7.0 0.00 0.03 0.00 75 1018.5
20260504004549 57 304 3.0 7.0 0.00 0.03 0.00 76 1018.5
20260504004040 58 11 2.0 7.0 0.00 0.03 0.00 77 1018.5
20260504003540 58 238 4.0 7.0 0.00 0.03 0.00 77 1018.5
20260504003047 57 235 3.0 10.0 0.00 0.03 0.00 78 1018.4
20260504002539 57 225 3.0 10.0 0.00 0.03 0.00 77 1018.4
20260504002039 57 308 3.0 8.0 0.00 0.03 0.00 78 1018.4
20260504001602 57 336 3.0 8.0 0.00 0.03 0.00 78 1018.4
20260504001041 57 235 4.0 13.0 0.00 0.03 0.00 79 1018.3
20260504000539 56 309 5.0 13.0 0.00 0.03 0.00 79 1018.2
20260504000050 56 345 3.0 10.0 0.00 0.03 0.00 80 1018.2
20260503235540 56 288 5.0 10.0 0.00 0.03 0.00 80 1018.1
20260503235044 56 306 3.0 8.0 0.00 0.03 0.00 81 1018.2